Location: Stilling
(56.0622°N, 9.9882°E)
Time: 23:46:25
(UTC+00:00)

Cosmos 2297 - Pass Details

Date: 13 July 2020
Orbit: 835 x 859 km, 71.0° (Epoch: 03 August)

Event Time Altitude Azimuth Distance (km) Brightness Sun altitude
Rises 20:57:19 0° 324° (NW) 3,447 9.8 -6.2°
Reaches altitude 10° 20:59:48 10° 322° (NW) 2,505 8.0 -6.4°
Maximum altitude 21:05:30 66° 242° (WSW) 934 4.0 -6.8°
Drops below altitude 10° 21:11:08 10° 161° (SSE) 2,477 5.5 -7.2°
Enters shadow 21:11:34 - 161° (SSE) 2,634 5.6 -7.2°
